Location: Goettingen
(51.5300°N, 9.9433°E)
Time: 04:53:10
(UTC+01:00)

ISS - Pass Details

Date: 03 December 2021
Orbit: 417 x 423 km, 51.6° (Epoch: 29 November)

Event Time Altitude Azimuth Distance (km) Brightness Sun altitude
Rises 18:44:48 0° 284° (WNW) 2,381 1.2 -22.5°
Reaches altitude 10° 18:47:01 10° 275° (W) 1,513 0.1 -22.8°
Enters shadow 18:50:06 34° 210° (SSW) 723 -2.3 -23.3°
